Lid_Strength_Index
-0 -1 0 2 6 6 8 8 6 7 7 5 4 5 6 5 7 10 1 0 -0 -0 -1 -1 -1 -1 -1 -1 -1 -1 -1 -1 -1 -1 -1 -1 -1 -1 -1 -1 -1 -1 -1 -1 -1 -1 -1 -1 -1
3 2 2 3 7 9 9 7 7 6 5 4 4 5 6 7 3 3 2 0 -0 -1 -1 -1 -1 -1 -1 -1 -1 -1 -1 -1 -1 -1 -1 -1 -1 -1 -1 -1 -1 -1 -1 -1 -1 -1 -1 -1 -1
3 2 3 5 7 9 9 7 6 6 4 5 5 4 5 6 3 2 0 -0 -1 -1 -1 -1 -1 -1 -1 -1 -1 -1 -1 -1 -1 -1 -1 -1 -1 -1 -1 -1 -1 -1 -1 -1 -1 -1 -1 -1 -1
3 2 3 6 8 7 6 6 5 6 5 4 4 6 3 2 3 1 0 -0 -0 -1 -1 -1 -1 -1 -1 -1 -1 -1 -1 -1 -1 -1 -1 -1 -1 -1 -1 -1 -1 -1 -1 -1 -1 -1 -1 -1 -1
3 3 6 7 7 6 5 5 5 6 5 5 4 5 5 2 0 0 0 -0 -0 -0 -1 -1 -1 -1 -1 -1 -1 -1 -1 -1 -1 -1 -1 -1 -1 -1 -1 -1 -1 -1 -1 -1 -1 -1 -1 -1 -1
5 4 7 9 7 6 5 4 5 5 5 4 5 4 5 1 1 1 -0 -0 -1 -0 -1 -1 -1 -1 -1 -1 -1 -1 -1 -1 -1 -1 -1 -1 -1 -1 -1 -1 -1 -1 -1 -1 -1 -1 -1 -1 -1
5 5 7 8 7 7 6 4 5 5 5 5 5 5 4 3 1 0 -0 -0 -1 -1 -1 -1 -1 -1 -2 -1 -1 -1 -1 -1 -1 -1 -1 -1 -1 -1 -1 -1 -1 -1 -1 -1 -1 -1 -1 -1 -1
5 4 7 6 7 7 5 4 4 4 5 4 4 5 5 3 1 0 -0 -0 -0 -1 -1 -1 -0 0 -0 -1 -2 -2 -2 -2 -3 -2 -2 -2 -3 -1 -1 -1 -1 -1 -1 -1 -1 -1 -1 -1 -1
5 6 7 7 7 6 5 5 4 4 4 4 4 3 2 1 1 1 1 1 0 1 2 1 -0 -1 -2 -2 -2 -3 -3 -4 -4 -3 -3 -3 -2 -2 -2 -3 -2 -2 -1 -1 -1 -1 -1 -1 -1
4 6 7 5 5 6 4 4 4 4 5 5 4 2 2 1 1 2 2 2 1 1 0 -1 -1 -1 -2 -1 -2 -2 -2 -2 -2 -2 -2 -2 -2 -2 -2 -3 -3 -3 -2 -1 -1 -1 -1 -1 -1
4 6 5 5 6 4 5 5 4 5 5 4 5 3 2 2 2 2 1 1 1 0 -0 -1 -1 -2 -1 -1 -2 -2 -2 -2 -2 -2 -2 -3 -2 -2 -2 -2 -2 -2 -3 -1 -1 -1 -1 -1 -1
7 6 5 5 6 5 5 4 5 5 6 5 3 2 2 2 2 2 2 1 1 0 -0 -1 -1 -1 -2 -1 -1 -2 -1 -2 -1 -2 -3 -2 -1 -2 -2 -1 -1 -2 -2 -1 -1 -1 -1 -1 -1
6 6 6 6 6 6 5 6 6 6 4 4 2 3 3 2 2 1 1 1 0 0 -0 -1 -1 -1 -2 -2 -1 -2 -1 -1 -2 -2 -2 -2 -1 -1 -1 -1 -1 -1 -2 -1 -1 -1 -1 -1 -1
5 6 6 6 6 6 7 7 6 5 3 4 3 3 3 2 2 2 1 1 1 0 -0 -1 -1 -2 -2 -1 -2 -1 -2 -2 -2 -2 -2 -2 -2 -1 -1 -1 -1 -1 -1 -1 -1 -1 -1 -0 -1
4 6 5 6 5 6 5 7 6 4 3 3 3 3 3 2 2 2 1 1 0 0 -0 -1 -1 -2 -1 -1 -2 -2 -2 -2 -1 -2 -2 -2 -2 -2 -2 -1 -1 -1 -2 -2 -1 -1 -1 -0 -1
6 5 7 5 5 5 5 7 5 4 4 4 3 3 3 2 2 1 1 0 0 -0 0 -1 -1 -1 -1 -1 -2 -1 -2 -2 -1 -2 -2 -2 -2 -2 -2 -1 -1 -1 -1 -1 -1 -0 0 0 0
6 8 8 7 5 5 5 7 5 4 4 4 4 3 3 3 2 1 1 0 0 0 -0 -0 -1 -1 -1 -2 -2 -2 -3 -2 -2 -2 -2 -2 -2 -2 -2 -1 -1 -2 -1 -1 0 0 0 1 1
9 8 8 8 6 5 6 7 6 5 4 4 4 4 4 3 3 2 1 0 0 -0 -0 -1 -1 -1 -1 -1 -1 -1 -1 -1 -2 -2 -2 -2 -2 -2 -2 -1 -1 -2 -1 -0 -0 0 0 0 1
7 8 8 7 6 6 7 7 7 5 5 5 4 4 4 3 2 1 1 1 1 0 -0 -0 -1 -1 -1 -0 0 0 0 -0 -1 -1 -2 -2 -2 -2 -2 -1 -1 -1 -1 -0 -0 0 1 1 0
7 8 8 7 6 6 7 7 6 6 5 5 5 5 4 3 3 2 2 1 1 1 -0 -0 -1 -1 -1 -0 -1 -0 -0 -0 -1 -1 -2 -2 -2 -2 -2 -1 -1 -1 -0 -1 -1 -0 1 1 1
7 8 8 8 7 6 7 8 8 6 6 5 4 4 4 4 3 3 2 1 1 1 0 -0 -1 -1 -1 -1 -1 -1 -1 -1 -0 -0 -0 -1 -2 -2 -2 -1 -1 -1 -0 0 -0 -0 1 2 1
8 6 7 8 8 10 7 11 8 7 7 6 5 4 4 4 3 2 2 1 2 1 1 -0 -1 -1 -1 -1 -1 -1 1 1 0 -0 -0 -1 -2 -2 -2 -2 -1 -1 -1 -0 -0 -0 0 1 3
8 6 7 7 8 8 8 10 9 7 8 7 6 5 4 3 3 3 2 2 2 1 1 -0 -1 -1 -1 -1 -1 0 0 0 0 0 -0 -0 -1 -2 -1 -2 -1 -1 -1 -1 0 0 0 1 2
5 6 7 7 8 11 9 9 9 9 8 7 5 5 4 3 3 2 2 2 1 1 0 -0 -0 -1 -1 -1 -1 -0 0 0 1 0 1 0 -0 -0 -1 -1 -1 -1 -1 -0 0 -0 0 0 1
6 8 11 12 12 12 9 10 9 7 6 5 5 5 4 3 3 3 3 2 1 1 1 0 0 0 -0 -0 -0 -1 -0 -0 0 1 1 1 1 0 0 -1 -1 -0 -1 -1 -1 0 0 0 1
8 8 11 15 13 12 9 11 9 6 5 4 4 4 4 3 3 3 2 2 2 1 1 0 0 0 -0 -0 -0 -1 -1 0 0 0 0 1 1 0 -0 -0 -0 -1 -1 -1 -1 0 0 0 1
8 9 7 10 10 12 10 9 7 6 6 5 5 5 4 3 3 3 2 2 1 1 0 0 0 0 -0 -0 -0 -0 -0 0 1 0 -0 0 -0 1 -0 1 1 0 -1 1 1 1 1 1 1
7 6 10 9 15 15 11 11 10 8 7 6 6 5 4 4 3 2 2 2 1 1 0 -0 -0 0 -0 0 -0 -0 0 0 0 -0 1 2 1 1 1 2 2 2 1 1 1 2 2 2 2
8 8 8 9 10 13 14 10 7 7 6 6 5 4 4 4 3 2 2 1 1 1 0 0 0 0 0 0 -0 0 1 1 2 3 3 2 3 2 3 3 2 2 2 2 2 3 3 2 3
7 8 8 11 13 10 12 12 6 6 6 5 5 4 4 3 3 2 2 1 1 1 1 1 0 0 0 0 1 1 2 3 3 2 4 3 4 3 3 3 3 3 3 3 3 3 3 2 3